Kremmling, CO

1:16 PM MST on November 15, 2019 (GMT -0700)
Kremmling

Weather History for K20V - September, 2019

Change the Weather History Date:

Saturday, September 14, 2019

  Actual Average Record
Temperature  
Mean Temperature 54 °F -  
Max Temperature 79 °F - 84 °F (2018)
Min Temperature 30 °F - 23 °F (2003)
Degree Days  
Heating Degree Days 10    
Month to date heating degree days 82  
Cooling Degree Days 0    
Month to date cooling degree days 4  
Growing Degree Days 4 (Base 50)    
Moisture  
Dew Point 30 °F    
Average Humidity 53    
Maximum Humidity 93    
Minimum Humidity 15    
Precipitation  
Precipitation 0.00 in - 0.08 in (2016)
Snow  
Snow 0.00 in - - ()
Snow Depth 0.00 in    
Sea Level Pressure  
Sea Level Pressure 30.42 in    
Wind  
Wind Speed 2 mph ()    
Max Wind Speed 14 mph    
Max Gust Speed 22 mph    
Visibility 10.0 miles    
Events      
T = Trace of Precipitation, MM = Missing Value Source: Averaged Metar Reports

Daily Weather History Graph

Daily Weather History Graph

Search for Another Location

Airport or City:

Astronomy

Sep. 14, 2019 Rise Set
Actual Time 6:45 AM MDT 7:16 PM MDT
Civil Twilight 6:18 AM MDT 7:43 PM MDT
Nautical Twilight 5:45 AM MDT 8:15 PM MDT
Astronomical Twilight 5:12 AM MDT 8:48 PM MDT
Moon 7:58 PM MDT (9/14) 7:01 AM MDT (9/14)
Length of Visible Light 13h 25m
Length of Day
12h 30m
Full, 100% of the Moon is Illuminated
Sep 14
Full
Sep 21
Last Quarter
Sep 28
New
Oct 5
First Quarter
Oct 13
Full

Hourly Weather History & Observations

Time (MDT) Temp. Windchill Dew Point Humidity Pressure Visibility Wind Dir Wind Speed Gust Speed Precip Events Conditions
12:06 AM 41.0 °F - 32.0 °F 70% 30.42 in 10.0 mi Calm Calm - N/A   Clear
12:28 AM 39.2 °F - 32.0 °F 75% 30.43 in 10.0 mi Calm Calm - N/A   Clear
12:46 AM 39.2 °F - 32.0 °F 75% 30.43 in 10.0 mi Calm Calm - N/A   Clear
1:05 AM 35.6 °F - 30.2 °F 81% 30.44 in 10.0 mi Calm Calm - N/A   Clear
1:29 AM 37.4 °F - 32.0 °F 81% 30.44 in 10.0 mi Calm Calm - N/A   Clear
1:47 AM 35.6 °F - 32.0 °F 87% 30.44 in 10.0 mi Calm Calm - N/A   Clear
2:06 AM 35.6 °F - 30.2 °F 81% 30.44 in 10.0 mi Calm Calm - N/A   Clear
2:30 AM 35.6 °F - 30.2 °F 81% 30.45 in 10.0 mi Calm Calm - N/A   Clear
2:47 AM 35.6 °F - 32.0 °F 87% 30.44 in 10.0 mi Calm Calm - N/A   Clear
3:06 AM 33.8 °F - 30.2 °F 87% 30.45 in 10.0 mi Calm Calm - N/A   Clear
3:29 AM 33.8 °F - 30.2 °F 87% 30.45 in 10.0 mi Calm Calm - N/A   Clear
3:46 AM 33.8 °F - 30.2 °F 87% 30.45 in 10.0 mi Calm Calm - N/A   Clear
4:06 AM 33.8 °F - 30.2 °F 87% 30.45 in 10.0 mi Calm Calm - N/A   Clear
4:30 AM 33.8 °F - 30.2 °F 87% 30.46 in 10.0 mi Calm Calm - N/A   Clear
4:48 AM 32.0 °F - 28.4 °F 87% 30.46 in 10.0 mi Calm Calm - N/A   Clear
5:06 AM 32.0 °F - 28.4 °F 87% 30.46 in 10.0 mi Calm Calm - N/A   Clear
5:29 AM 32.0 °F - 30.2 °F 93% 30.46 in 10.0 mi Calm Calm - N/A   Clear
5:47 AM 32.0 °F - 28.4 °F 87% 30.46 in 10.0 mi Calm Calm - N/A   Clear
6:10 AM 30.2 °F - 26.6 °F 86% 30.46 in 10.0 mi Calm Calm - N/A   Clear
6:29 AM 32.0 °F - 28.4 °F 87% 30.47 in 10.0 mi Calm Calm - N/A   Clear
6:48 AM 30.2 °F - 28.4 °F 93% 30.48 in 10.0 mi Calm Calm - N/A   Clear
7:06 AM 30.2 °F - 28.4 °F 93% 30.48 in 10.0 mi Calm Calm - N/A   Clear
7:30 AM 32.0 °F - 28.4 °F 87% 30.49 in 10.0 mi Calm Calm - N/A   Clear
7:48 AM 33.8 °F - 30.2 °F 87% 30.49 in 10.0 mi Calm Calm - N/A   Clear
8:06 AM 35.6 °F - 30.2 °F 81% 30.49 in 10.0 mi Calm Calm - N/A   Clear
8:29 AM 37.4 °F - 32.0 °F 81% 30.49 in 10.0 mi Calm Calm - N/A   Clear
8:47 AM 41.0 °F - 30.2 °F 65% 30.49 in 10.0 mi Calm Calm - N/A   Clear
9:05 AM 42.8 °F - 32.0 °F 66% 30.49 in 10.0 mi Calm Calm - N/A   Clear
9:29 AM 46.4 °F - 32.0 °F 57% 30.49 in 10.0 mi Calm Calm - N/A   Clear
9:47 AM 48.2 °F - 32.0 °F 54% 30.49 in 10.0 mi Calm Calm - N/A   Clear
10:06 AM 50.0 °F - 32.0 °F 50% 30.48 in 10.0 mi Calm Calm - N/A   Clear
10:30 AM 53.6 °F - 32.0 °F 44% 30.47 in 10.0 mi Calm Calm - N/A   Clear
10:48 AM 57.2 °F - 32.0 °F 38% 30.47 in 10.0 mi Calm Calm - N/A   Clear
11:06 AM 59.0 °F - 32.0 °F 36% 30.46 in 10.0 mi SE 4.6 mph - N/A   Clear
11:30 AM 62.6 °F - 32.0 °F 32% 30.44 in 10.0 mi Calm Calm - N/A   Clear
11:48 AM 62.6 °F - 32.0 °F 32% 30.43 in 10.0 mi Calm Calm - N/A   Clear
12:06 PM 68.0 °F - 32.0 °F 26% 30.42 in 10.0 mi South 3.5 mph - N/A   Clear
12:30 PM 73.4 °F - 30.2 °F 20% 30.41 in 10.0 mi SW 11.5 mph 17.3 mph N/A   Clear
12:48 PM 73.4 °F - 28.4 °F 19% 30.41 in 10.0 mi SSW 12.7 mph - N/A   Clear
1:06 PM 73.4 °F - 28.4 °F 19% 30.40 in 10.0 mi West 10.4 mph - N/A   Clear
1:30 PM 75.2 °F - 28.4 °F 18% 30.39 in 10.0 mi SSW 9.2 mph 21.9 mph N/A   Clear
1:47 PM 75.2 °F - 26.6 °F 17% 30.39 in 10.0 mi WSW 8.1 mph 18.4 mph N/A   Clear
2:06 PM 77.0 °F - 28.4 °F 17% 30.37 in 10.0 mi West 11.5 mph 17.3 mph N/A   Clear
2:30 PM 78.8 °F - 28.4 °F 16% 30.36 in 10.0 mi SW 13.8 mph 18.4 mph N/A   Clear
2:48 PM 77.0 °F - 28.4 °F 17% 30.35 in 10.0 mi WSW 11.5 mph 16.1 mph N/A   Clear
3:06 PM 78.8 °F - 26.6 °F 15% 30.35 in 10.0 mi WSW 11.5 mph 20.7 mph N/A   Clear
3:29 PM 78.8 °F - 28.4 °F 16% 30.34 in 10.0 mi WSW 9.2 mph - N/A   Clear
3:46 PM 78.8 °F - 26.6 °F 15% 30.33 in 10.0 mi NW 9.2 mph 17.3 mph N/A   Clear
4:05 PM 78.8 °F - 26.6 °F 15% 30.33 in 10.0 mi SW 10.4 mph - N/A   Clear
4:46 PM 78.8 °F - 26.6 °F 15% 30.33 in 10.0 mi WNW 8.1 mph - N/A   Clear
5:06 PM 78.8 °F - 26.6 °F 15% 30.33 in 10.0 mi North 8.1 mph - N/A   Clear
5:30 PM 75.2 °F - 26.6 °F 17% 30.33 in 10.0 mi North 8.1 mph - N/A   Clear
5:48 PM 75.2 °F - 26.6 °F 17% 30.33 in 10.0 mi NNW 11.5 mph - N/A   Clear
6:06 PM 73.4 °F - 26.6 °F 18% 30.33 in 10.0 mi North 11.5 mph 16.1 mph N/A   Clear
7:05 PM 68.0 °F - 28.4 °F 23% 30.34 in 10.0 mi North 3.5 mph - N/A   Clear
7:29 PM 62.6 °F - 28.4 °F 27% 30.35 in 10.0 mi South 3.5 mph - N/A   Clear
7:47 PM 59.0 °F - 28.4 °F 31% 30.36 in 10.0 mi SSW 4.6 mph - N/A   Clear
8:06 PM 62.6 °F - 26.6 °F 26% 30.37 in 10.0 mi Calm Calm - N/A   Clear
8:30 PM 57.2 °F - 30.2 °F 36% 30.37 in 10.0 mi Calm Calm - N/A   Clear
8:48 PM 55.4 °F - 30.2 °F 38% 30.38 in 10.0 mi Calm Calm - N/A   Clear
9:06 PM 50.0 °F - 26.6 °F 40% 30.39 in 10.0 mi SSE 3.5 mph - N/A   Clear
9:29 PM 50.0 °F - 28.4 °F 43% 30.39 in 10.0 mi Calm Calm - N/A   Clear
9:50 PM 50.0 °F - 30.2 °F 47% 30.40 in 10.0 mi Calm Calm - N/A   Clear
10:06 PM 50.0 °F - 32.0 °F 50% 30.40 in 10.0 mi Calm Calm - N/A   Clear
10:27 PM 50.0 °F - 32.0 °F 50% 30.41 in 10.0 mi Calm Calm - N/A   Clear
10:50 PM 48.2 °F - 32.0 °F 54% 30.41 in 10.0 mi Calm Calm - N/A   Clear
11:06 PM 46.4 °F - 32.0 °F 57% 30.41 in 10.0 mi Calm Calm - N/A   Clear
11:29 PM 42.8 °F - 28.4 °F 57% 30.40 in 10.0 mi Calm Calm - N/A   Clear
11:47 PM 41.0 °F 38.0 °F 28.4 °F 61% 30.40 in 10.0 mi SE 4.6 mph - N/A   Clear